GFSSGP_850_thetae_000.txt.gz
Theta_e
320 323 326 330 332 331 336 335 331 329 328 327 327 325 323 324 326 326 336 329 334 329 331 329 326 326 324 323 318 315 315 317 315 313 313 313 320 318 318 321 323 322 321 319 317 310 310 312 317
322 327 330 334 336 340 338 333 332 326 327 328 327 324 324 328 331 331 332 328 326 325 328 327 327 326 327 325 321 319 316 315 314 315 317 323 319 316 317 319 323 324 323 323 322 318 312 316 317
323 330 328 334 335 338 338 333 332 329 327 327 326 326 326 328 328 328 329 329 326 326 325 325 327 328 327 325 323 322 319 315 315 322 325 317 316 318 320 318 317 319 326 328 326 323 321 316 325
325 335 334 334 334 333 335 333 331 326 326 326 326 326 326 327 326 328 327 325 325 326 323 326 328 328 325 321 320 319 317 317 321 323 325 324 319 317 317 317 315 315 318 321 328 327 323 325 323
334 336 333 332 333 332 329 330 326 324 325 325 325 327 326 328 328 328 327 325 323 324 325 326 327 325 321 319 317 315 316 314 316 321 323 323 323 322 322 315 314 318 320 321 325 325 327 325 325
334 330 327 328 329 329 327 329 329 327 326 325 327 326 326 326 326 326 323 323 326 325 325 326 324 322 319 319 318 317 316 318 319 318 318 318 318 317 317 317 319 319 319 324 324 325 326 326 325
331 328 329 328 330 327 328 330 329 326 328 325 327 326 328 326 325 322 322 324 325 324 324 324 321 321 321 320 320 320 317 318 324 324 324 322 321 322 321 320 319 319 319 324 324 323 323 325 324
331 326 328 326 328 327 327 327 327 328 328 328 326 327 327 327 325 325 325 325 324 324 323 322 322 322 322 321 321 321 320 325 325 324 324 321 319 319 319 318 317 316 316 318 320 322 323 325 326
330 328 328 328 328 327 329 325 329 326 326 326 326 326 327 328 327 326 326 326 325 323 323 323 323 322 322 322 321 320 322 325 325 325 324 322 319 318 319 319 321 323 322 319 318 322 323 326 326
328 327 331 330 327 326 328 326 326 324 324 325 325 326 325 327 327 326 325 324 323 323 323 323 323 323 322 321 321 320 323 326 326 324 325 322 320 320 319 320 322 323 324 325 323 323 325 325 326
329 330 329 329 329 328 327 327 327 324 323 325 324 326 325 327 326 326 322 323 324 323 323 323 323 322 321 321 320 323 324 326 325 325 326 321 323 322 321 321 322 322 321 323 325 323 324 324 325
328 329 330 330 329 328 326 327 326 326 326 326 325 326 326 327 327 325 323 324 324 323 323 323 322 323 320 316 316 322 324 324 323 325 324 323 323 322 320 324 323 323 322 322 323 323 323 324 320
328 329 329 329 328 328 328 326 325 325 329 327 325 325 325 325 325 323 324 324 324 324 323 323 323 320 317 317 319 324 326 326 326 324 324 323 323 324 320 321 324 323 322 322 323 323 323 324 319
329 330 329 329 329 329 328 327 325 326 328 327 326 325 325 325 324 324 324 324 324 323 323 322 322 320 315 316 321 326 328 327 326 325 325 324 323 325 324 320 321 320 320 321 322 323 323 322 319
322 326 327 328 326 324 326 325 325 327 327 327 325 325 324 324 324 324 324 324 324 323 323 323 321 319 316 316 325 327 329 329 328 327 325 325 324 324 325 321 322 322 320 321 322 323 323 323 322
320 320 322 322 323 324 324 326 325 327 327 326 326 325 324 324 324 324 324 324 324 323 323 323 321 316 316 317 325 327 329 330 329 327 326 325 325 324 322 320 322 322 320 321 321 323 323 324 323
318 321 321 321 322 325 323 326 326 327 326 325 327 326 325 325 323 324 324 324 324 323 323 323 319 315 316 319 326 328 327 327 327 327 327 325 324 322 321 320 322 322 320 321 321 323 323 324 322
320 320 322 324 324 324 325 325 325 325 325 325 327 327 326 326 325 324 324 324 323 323 324 321 316 317 316 322 328 329 330 328 327 327 326 325 325 323 323 321 322 322 320 321 321 321 322 324 323
321 321 322 323 324 325 325 326 326 325 325 324 325 327 327 327 326 324 324 323 324 324 324 320 316 318 319 324 329 329 329 328 327 328 327 327 326 324 322 322 321 322 321 322 321 321 322 324 324
319 322 322 322 323 323 324 325 326 325 324 324 325 326 326 326 326 325 324 324 324 324 323 319 319 319 323 323 328 328 329 327 327 327 327 327 327 324 325 323 322 321 321 321 321 322 322 323 324
320 320 323 323 324 323 323 325 325 326 326 326 326 326 325 326 325 325 324 324 324 324 323 319 322 321 325 325 328 327 327 328 327 327 326 326 324 324 323 322 322 321 321 322 321 323 324 325 327
320 322 323 325 325 324 323 325 322 324 324 323 323 325 326 326 325 324 324 324 325 325 322 323 325 326 325 328 325 326 329 328 326 327 326 325 322 322 323 322 321 322 322 321 324 323 323 324 326
321 321 322 324 325 322 323 322 321 322 324 324 322 324 326 326 325 324 324 325 325 326 324 325 327 327 325 329 330 329 329 326 326 326 326 326 323 322 322 322 323 323 323 324 324 323 324 325 325
321 322 322 323 323 324 324 323 326 323 324 324 322 324 325 324 324 324 325 325 326 325 324 327 327 326 326 330 330 329 328 325 324 324 325 326 325 324 322 322 324 324 324 326 325 325 326 323 326
321 321 322 322 324 326 322 323 324 323 323 323 320 324 324 324 324 324 325 326 327 325 324 326 324 327 326 330 329 328 328 325 324 324 325 326 324 325 322 322 324 324 324 325 325 324 326 322 326
316 317 323 325 324 324 323 324 324 322 322 324 323 324 325 325 325 325 325 327 327 325 323 323 324 327 327 329 328 329 329 326 326 322 325 326 325 324 323 322 324 325 323 324 324 326 326 324 325
317 320 319 322 323 323 323 324 324 323 322 325 325 326 326 326 326 325 326 328 327 324 322 322 326 326 327 328 327 329 328 328 327 324 324 323 323 322 322 321 323 325 324 322 324 325 326 325 326
316 318 321 319 323 325 323 324 324 322 323 327 326 325 326 326 326 326 327 328 326 324 322 321 325 326 326 326 328 328 328 329 326 325 324 323 322 322 321 320 319 320 321 323 324 325 324 328 330
315 317 321 320 320 324 322 322 320 321 321 327 325 326 327 327 327 327 328 327 326 325 322 323 325 325 325 326 328 328 329 330 326 324 324 324 324 323 322 322 322 323 323 324 324 325 327 328 329
316 317 320 323 322 320 321 322 322 321 322 326 325 327 327 327 327 327 328 327 325 325 323 322 326 324 324 325 327 328 329 330 327 326 325 325 325 324 324 323 324 324 324 324 324 325 324 327 328

GFSSGP_850_thetae_003.txt.gz
Theta_e
313 314 319 329 331 330 334 334 328 331 326 327 326 324 323 324 324 323 332 333 335 335 333 326 323 320 321 320 320 317 316 318 319 317 314 312 311 319 318 316 316 322 323 322 317 315 310 310 314
321 321 326 333 333 337 335 333 332 327 326 326 325 325 325 327 329 333 333 332 333 330 331 329 327 325 324 324 321 319 318 319 319 317 314 315 317 319 315 314 315 319 324 325 323 321 316 314 320
323 330 331 332 332 337 335 333 331 330 332 326 324 324 325 327 329 330 329 330 328 326 326 326 326 326 325 324 322 320 319 319 320 317 318 326 326 323 322 320 318 324 328 325 324 325 322 319 320
324 329 330 333 335 332 333 333 331 328 324 325 325 326 326 326 326 326 327 329 328 325 323 324 325 325 325 323 319 318 317 316 315 318 324 324 326 325 324 323 321 320 326 327 328 328 329 324 323
329 335 334 333 333 331 329 330 326 322 324 324 325 326 326 326 326 326 327 328 324 322 321 323 325 325 325 320 318 318 316 313 313 318 321 322 324 323 323 322 324 323 318 325 328 326 328 327 324
332 329 327 328 327 326 325 329 326 325 326 325 326 326 326 326 327 327 328 325 323 320 321 323 326 325 322 319 320 319 319 316 315 318 319 319 319 320 319 319 320 319 323 325 327 325 324 324 325
329 326 329 327 330 328 326 328 326 325 324 325 326 324 326 326 327 327 327 322 323 324 324 324 325 323 319 321 321 320 320 318 317 322 323 323 323 322 321 321 321 319 319 324 324 323 323 323 324
331 325 329 326 327 327 326 326 328 326 325 325 327 327 327 327 327 328 326 324 324 325 325 324 324 321 321 322 322 322 321 318 320 323 324 324 322 320 318 319 319 318 317 320 324 325 322 322 324
329 326 328 327 326 326 328 324 327 327 326 325 325 325 326 327 327 327 327 326 326 325 325 324 322 322 322 322 322 322 320 319 323 325 325 323 322 318 319 319 318 318 321 321 317 322 322 321 324
327 325 327 326 326 325 326 327 327 325 325 323 326 327 326 326 326 325 325 325 325 324 324 323 322 323 322 323 322 321 320 321 324 325 324 324 325 321 320 318 319 323 322 323 325 324 322 322 322
326 327 327 326 327 328 327 327 329 324 325 326 324 327 325 326 326 325 326 325 322 321 323 323 323 323 323 322 322 320 319 322 323 324 325 326 324 323 320 319 320 320 322 322 323 324 322 323 324
327 327 328 327 327 328 326 328 326 326 326 328 328 325 325 327 327 327 326 325 322 322 323 323 324 323 322 322 318 318 324 325 325 325 324 324 322 322 321 318 323 323 323 322 321 321 323 323 324
325 326 327 327 328 328 328 326 326 327 328 329 328 326 326 326 326 326 326 325 321 323 323 323 324 323 322 318 316 322 324 327 326 325 325 324 323 322 324 319 319 322 323 322 321 322 322 322 322
326 326 327 328 328 329 327 328 328 328 328 328 327 325 326 326 326 326 326 325 322 323 323 323 323 322 321 318 317 323 327 327 327 327 326 325 324 323 323 324 320 320 321 320 320 321 322 322 323
319 319 321 323 326 326 328 326 326 326 326 326 326 326 326 325 326 325 325 323 323 323 323 323 322 322 319 317 318 323 326 329 328 328 327 325 325 325 323 324 323 320 321 320 320 321 322 322 323
317 318 320 321 323 325 324 327 324 325 325 326 326 326 326 326 325 324 325 323 323 323 323 322 322 321 317 316 320 324 326 326 326 327 328 326 325 325 324 323 322 320 322 322 320 321 322 322 322
315 318 318 319 320 321 321 324 324 326 326 325 326 326 326 325 324 324 324 323 323 323 322 322 322 320 316 315 321 325 325 328 327 326 326 327 326 325 323 322 320 321 322 321 320 320 322 322 323
315 316 318 320 320 320 322 322 324 325 325 324 325 325 324 325 324 324 323 323 323 322 322 322 322 317 316 318 322 325 326 328 327 326 327 326 326 324 323 322 320 322 321 320 321 320 322 323 322
316 316 317 318 320 322 322 322 324 324 323 323 324 324 324 325 325 323 323 322 323 322 322 323 320 317 315 321 321 324 326 327 326 326 327 326 327 326 323 321 321 321 321 320 320 320 322 323 323
317 317 319 320 321 322 321 322 322 322 322 323 324 324 324 324 324 325 323 322 322 323 323 322 318 318 320 320 322 325 326 326 327 326 327 326 327 326 323 322 322 321 321 321 320 320 321 322 324
317 317 318 319 321 321 321 323 323 323 322 324 325 324 324 325 325 325 323 322 323 323 324 322 318 319 321 321 324 323 326 327 327 326 326 326 324 323 324 323 321 321 320 321 321 321 321 322 324
318 319 320 320 321 323 322 323 321 321 322 321 323 325 327 326 325 325 323 323 323 324 323 321 320 321 322 324 324 327 327 326 326 326 325 325 322 322 323 322 321 320 321 321 321 321 321 322 324
318 319 321 321 321 321 322 322 321 320 322 320 319 322 324 325 325 325 323 323 324 324 323 321 323 324 323 325 327 329 327 326 324 324 325 325 322 322 322 321 320 322 322 321 322 323 323 322 324
317 319 319 318 320 322 322 321 323 321 321 322 321 324 324 324 324 324 324 324 324 324 323 323 325 325 323 325 329 329 327 326 324 324 325 325 325 323 322 321 322 323 323 324 323 323 322 323 323
315 317 319 318 322 324 321 321 323 322 321 321 321 322 324 324 324 324 324 324 324 325 323 325 326 322 325 330 328 328 328 326 324 322 324 325 324 324 321 322 323 323 325 325 325 325 325 324 323
316 318 320 323 322 323 321 324 324 321 322 322 323 322 323 323 323 324 324 324 325 325 323 325 323 324 325 329 329 328 329 327 325 323 325 325 323 324 321 322 324 323 324 324 325 324 326 323 325
315 318 319 319 321 322 322 322 322 321 321 322 321 322 323 323 324 324 324 325 326 325 323 323 322 325 326 328 328 328 328 328 326 323 323 323 323 323 321 320 324 325 323 322 323 325 325 324 325
314 315 316 314 319 322 323 323 323 323 323 324 323 321 323 324 324 324 325 326 327 324 323 321 324 325 326 327 327 328 327 329 325 323 322 321 320 322 321 319 323 323 323 322 324 324 325 324 323
312 315 315 317 319 321 322 323 318 320 320 323 322 323 324 324 325 325 325 327 326 323 322 320 324 325 325 326 328 327 328 329 324 324 323 324 321 320 319 318 318 319 321 323 324 323 324 328 329
315 315 315 317 319 318 321 324 321 318 317 322 322 324 325 325 326 325 326 327 325 323 321 321 325 325 324 325 328 327 328 328 325 325 324 325 322 321 320 321 320 321 323 324 325 326 327 327 328

GFSSGP_850_thetae_006.txt.gz
Theta_e
310 312 317 327 329 328 333 333 328 330 330 325 325 323 321 324 331 326 329 332 331 331 329 329 325 323 320 320 319 319 318 317 316 316 315 311 309 308 312 314 314 314 319 321 319 316 314 310 309
315 320 327 332 332 335 334 332 333 329 331 326 324 324 324 324 328 330 331 331 330 330 329 328 326 324 323 322 321 321 319 318 319 319 318 314 312 314 315 314 313 314 318 324 325 323 320 317 312
319 326 333 332 332 336 334 331 331 330 329 329 324 324 324 326 327 327 329 329 330 330 328 326 325 324 324 323 323 321 319 319 320 320 319 316 317 325 323 321 318 318 322 328 329 327 324 322 319
326 329 330 333 336 333 331 331 332 326 328 323 324 325 326 326 326 326 328 329 329 326 323 322 324 324 324 323 323 319 318 317 317 317 318 320 325 325 327 323 320 321 323 325 328 328 329 327 324
324 334 333 333 334 332 329 331 331 323 323 323 324 325 326 326 326 326 327 328 327 324 321 320 323 325 323 322 319 318 317 317 315 313 316 323 325 323 324 323 325 324 322 327 327 327 326 328 328
331 330 329 331 329 327 325 328 326 324 325 324 325 324 326 326 326 326 327 327 327 320 320 320 323 325 325 321 319 319 318 319 317 314 316 320 319 320 321 322 322 321 322 322 326 326 326 323 327
329 325 327 327 328 327 326 328 324 324 324 325 325 325 326 326 326 326 327 327 323 321 321 321 324 325 325 321 320 321 320 321 318 317 320 323 323 323 323 322 321 322 323 323 324 325 324 323 324
331 323 327 325 326 326 325 326 325 326 326 327 325 324 325 326 326 326 327 327 322 323 323 323 323 325 323 320 321 321 321 321 318 318 321 324 325 323 321 320 317 318 319 322 324 320 321 323 324
329 325 326 325 324 324 325 325 326 327 327 325 327 326 326 326 325 326 327 327 323 325 324 325 324 325 322 321 322 322 321 319 318 320 322 324 323 322 319 317 317 317 317 317 319 318 315 318 321
325 325 325 324 323 324 325 326 328 326 327 325 326 328 327 326 325 327 327 326 323 324 324 325 325 324 321 322 322 322 321 318 318 322 323 324 323 323 321 321 318 318 321 321 323 324 321 322 321
325 327 326 326 325 325 326 327 328 327 327 327 326 328 328 326 325 327 327 326 325 325 325 324 325 323 322 322 322 322 319 318 322 323 324 324 324 323 322 321 319 320 320 322 323 323 325 323 323
325 325 326 326 326 326 325 327 327 327 327 328 329 329 328 326 325 326 327 326 325 325 324 324 324 323 323 323 322 321 317 321 325 325 325 324 324 323 322 322 318 321 322 322 322 321 322 323 322
323 325 326 326 327 326 326 326 326 327 327 328 329 329 328 326 325 326 326 326 326 325 324 324 324 324 324 323 322 318 317 324 327 325 325 325 324 323 322 323 321 319 322 324 322 321 321 323 322
324 325 325 325 326 326 326 326 327 328 328 329 328 328 327 326 326 326 326 326 326 326 325 324 324 324 324 322 320 316 322 327 327 327 327 327 325 325 324 323 323 321 319 321 320 320 321 321 322
318 318 317 318 320 321 323 324 325 326 327 327 327 327 326 326 325 325 326 326 325 326 325 324 323 324 323 322 317 317 324 326 327 327 328 328 326 325 325 324 324 324 321 321 320 319 320 321 322
317 317 317 318 319 320 322 323 323 324 326 325 325 326 327 327 326 326 325 325 325 326 325 323 323 323 322 320 316 321 325 326 328 327 327 327 327 326 325 324 323 323 321 321 321 319 319 322 322
314 316 316 316 317 318 322 321 322 323 324 324 324 325 326 325 325 325 325 325 325 325 324 323 323 322 321 318 317 323 325 327 328 327 326 326 327 326 325 324 322 322 320 321 321 319 320 322 322
315 314 315 316 318 318 318 319 320 321 322 323 324 324 324 324 326 325 325 325 325 325 324 323 322 322 320 317 319 324 325 326 326 325 326 327 326 326 325 324 322 320 321 321 321 320 320 322 322
314 314 314 315 317 318 318 319 320 321 321 320 321 322 323 325 325 325 325 323 323 324 322 322 322 322 318 316 321 323 323 325 325 326 326 327 327 327 326 324 322 320 321 321 320 321 320 322 322
315 314 314 316 319 319 319 319 319 319 320 321 322 322 323 324 325 325 324 322 322 323 322 322 322 321 317 319 320 321 323 325 326 327 326 326 326 326 326 324 320 321 321 321 321 320 320 322 323
315 315 316 316 319 319 319 319 319 320 321 321 322 323 325 325 326 325 324 323 321 322 322 322 322 318 318 320 320 322 325 326 326 325 326 325 325 322 323 323 322 321 321 321 320 320 321 322 323
318 317 317 318 320 319 319 321 319 319 321 319 321 323 324 326 323 323 323 322 321 322 322 323 320 320 320 319 321 325 326 326 324 324 325 325 322 322 323 323 322 321 320 321 320 321 321 322 323
318 318 318 319 319 318 319 319 319 318 319 320 319 323 324 322 323 324 324 322 321 322 323 322 321 321 319 320 325 328 327 326 324 323 324 325 323 322 322 322 320 320 321 321 320 321 321 321 323
317 316 317 316 316 319 318 319 319 320 321 320 319 322 322 322 323 323 323 322 322 323 323 322 322 321 320 322 326 328 327 326 324 323 323 325 325 322 321 320 321 322 322 321 322 322 322 323 323
315 313 314 316 317 320 318 319 319 319 319 319 320 321 323 322 324 324 323 322 323 323 323 323 323 322 321 323 328 328 328 326 325 322 324 325 324 323 321 322 323 323 325 324 323 322 322 323 323
316 315 314 317 320 322 319 322 322 319 320 321 322 321 322 322 324 324 323 323 324 324 323 323 324 321 323 327 328 327 328 327 326 323 324 324 323 323 321 322 323 323 324 324 324 324 325 324 323
315 314 315 318 319 320 319 320 321 320 320 319 319 320 321 323 323 324 323 324 324 324 323 323 322 323 324 328 328 327 328 327 324 323 321 322 323 323 321 322 323 323 323 323 324 324 325 325 323
313 314 316 315 319 321 320 321 322 322 320 321 321 319 321 323 323 324 324 324 324 325 323 323 321 323 324 327 327 328 327 328 324 323 323 320 322 322 320 320 323 324 322 322 324 325 325 324 324
312 313 313 315 314 319 320 321 317 320 319 320 319 320 322 323 324 324 324 324 326 324 323 321 323 324 325 326 327 327 327 328 324 324 323 322 320 321 319 319 322 321 321 323 323 323 327 326 324
314 314 313 316 317 317 319 320 319 318 317 317 319 321 322 324 324 324 324 325 326 323 322 320 323 324 324 325 327 327 327 327 325 324 323 324 321 319 318 318 317 318 323 324 325 326 327 328 328

GFSSGP_850_thetae_009.txt.gz
Theta_e
310 312 319 327 329 333 332 336 332 335 334 326 324 326 328 328 335 330 327 329 330 329 329 328 325 323 322 320 320 319 319 318 316 316 315 314 311 308 309 310 313 312 313 317 320 319 317 315 311
311 316 326 330 333 338 340 337 338 335 333 330 325 324 324 327 325 326 327 329 328 327 326 326 324 323 323 321 320 320 320 318 317 317 317 317 313 310 314 316 314 311 311 313 322 325 324 321 319
316 326 332 336 339 342 340 336 336 334 331 327 327 324 325 328 327 327 328 329 328 327 326 324 323 322 322 321 320 320 319 317 317 317 317 318 316 315 322 324 323 318 316 315 325 329 329 326 323
325 328 331 334 337 338 338 336 335 335 329 324 324 326 325 326 326 326 327 328 329 327 325 323 323 322 322 322 321 321 318 316 315 315 314 315 317 323 326 326 327 322 321 322 327 324 328 330 328
327 332 330 335 335 334 335 335 334 333 330 326 324 326 327 326 326 326 326 328 328 327 324 322 322 323 323 322 322 321 318 317 316 316 314 314 322 327 325 325 325 325 327 326 325 322 326 326 328
329 332 333 330 329 330 330 330 330 329 328 326 325 325 327 326 326 326 326 328 328 326 322 320 321 324 324 323 323 321 319 318 319 317 316 317 326 324 322 323 324 324 325 325 325 325 325 326 324
329 332 329 329 328 328 328 328 328 329 327 329 326 327 327 326 326 326 326 327 328 326 322 320 321 323 325 325 323 321 320 319 320 319 317 324 322 322 323 323 323 322 321 322 325 325 323 324 326
328 331 330 330 328 328 326 326 325 327 329 328 325 328 329 328 327 326 326 327 328 326 321 321 320 323 325 326 325 321 321 320 321 319 318 320 322 323 324 321 320 319 317 317 318 321 322 324 323
329 330 329 328 327 328 326 327 326 326 328 327 325 328 328 327 328 327 326 327 328 326 322 322 322 323 325 326 324 322 322 321 321 319 319 321 322 324 322 320 317 316 317 317 317 318 319 322 324
328 330 329 328 327 327 326 326 327 327 327 327 327 327 327 328 328 328 326 326 327 326 323 323 323 324 325 327 324 322 322 322 321 318 320 323 323 323 322 321 319 319 317 318 321 324 325 325 326
327 330 329 328 327 326 326 327 326 327 328 327 327 327 327 328 328 328 326 326 326 327 324 324 324 325 326 327 323 322 322 322 318 318 323 324 324 324 324 321 321 318 318 319 322 323 324 325 327
327 326 327 327 327 327 327 326 326 327 328 328 327 327 327 329 329 329 326 326 327 327 326 324 324 325 327 327 322 322 322 321 317 321 325 325 324 324 323 322 322 318 319 321 322 322 321 322 324
327 326 326 327 327 327 327 327 327 327 325 326 327 328 328 329 329 329 326 325 326 327 327 325 325 325 326 326 323 323 322 318 319 324 326 326 325 325 324 323 323 322 319 321 323 323 321 321 322
323 324 325 325 326 326 327 326 326 326 326 326 327 327 327 328 329 326 326 327 325 326 327 325 325 325 327 325 323 323 321 317 323 327 327 327 327 326 325 324 323 323 321 319 321 322 320 322 321
323 325 326 326 325 326 323 323 323 323 324 324 325 326 327 326 326 326 326 327 326 325 326 326 325 325 325 324 324 322 317 320 325 326 327 327 328 328 326 325 325 324 324 322 320 321 319 320 321
319 319 320 320 320 320 320 323 323 323 323 324 325 326 324 325 325 326 326 326 326 325 325 325 325 325 325 325 323 321 317 323 325 327 327 327 327 328 328 326 325 324 324 323 320 321 320 320 321
319 320 320 320 319 320 322 323 322 322 322 323 323 324 324 325 324 324 324 325 324 324 324 324 325 324 324 325 322 318 319 324 326 327 327 326 327 327 327 326 325 324 323 321 321 322 320 321 321
320 319 319 320 320 319 320 321 322 321 322 322 323 324 324 323 322 324 324 324 325 324 324 324 324 323 324 322 320 316 322 325 326 327 325 326 327 327 326 326 325 323 322 320 322 321 320 320 321
319 321 322 322 319 318 319 320 322 322 322 322 322 322 322 323 324 325 325 325 325 324 324 324 323 323 323 322 319 318 324 325 326 325 327 326 327 327 327 327 325 322 320 321 321 321 320 320 322
317 319 320 318 317 318 319 320 322 322 322 322 323 324 324 325 324 325 325 324 323 323 323 323 322 322 322 321 316 322 325 325 325 327 326 326 326 326 326 326 325 322 320 321 321 320 321 321 322
316 317 318 318 318 319 320 320 320 322 323 322 322 322 323 323 323 325 325 323 321 322 323 322 322 322 322 318 319 322 324 325 325 325 325 325 325 323 322 324 323 321 321 321 321 321 320 321 322
317 317 317 317 318 319 321 322 322 322 322 323 322 324 325 325 323 324 324 323 321 321 322 322 322 322 319 318 321 323 326 326 324 323 324 325 324 322 323 323 323 322 321 320 320 320 320 322 322
317 317 317 318 320 321 320 321 321 322 322 323 323 323 325 323 322 322 324 323 321 321 322 322 322 320 319 320 323 325 327 326 324 323 323 324 324 322 322 322 322 320 321 321 320 321 321 322 322
317 318 319 320 320 321 320 321 321 322 322 322 325 325 323 323 322 322 323 322 321 322 322 322 321 320 320 322 324 328 327 327 325 322 322 324 325 324 322 320 321 322 322 321 321 321 321 322 323
319 320 319 319 320 320 320 321 322 321 321 322 324 326 323 323 323 323 323 321 321 322 323 322 321 321 321 322 325 328 328 326 326 324 323 325 325 324 321 322 323 324 325 323 323 322 322 322 322
319 319 320 322 322 321 321 321 321 323 323 321 323 324 323 323 323 324 323 322 322 323 323 322 323 322 321 323 328 327 327 326 325 323 323 324 324 323 322 323 323 324 324 324 324 323 322 322 323
318 319 319 318 322 324 324 324 324 325 325 326 325 322 324 326 325 324 323 322 323 323 323 323 324 321 323 328 328 327 328 326 323 322 321 323 324 321 321 323 323 323 323 323 324 324 325 325 323
315 317 318 318 318 318 320 324 326 327 327 326 326 325 325 325 325 323 323 323 323 323 324 324 322 321 323 328 327 327 327 328 324 324 321 322 323 321 320 322 323 324 322 323 324 325 325 325 324
315 318 318 319 318 319 318 319 327 328 328 328 327 326 325 326 325 324 324 324 324 324 323 324 321 324 325 327 327 326 326 328 325 324 323 320 322 321 320 321 323 321 322 324 324 324 324 324 324
316 317 318 317 319 318 321 321 324 327 326 325 325 324 325 326 325 325 325 324 324 324 324 321 322 324 326 326 327 326 326 327 325 324 323 322 319 319 318 318 318 319 323 324 325 327 328 327 328

GFSSGP_850_thetae_015.txt.gz
Theta_e
312 312 324 328 333 331 335 335 336 337 337 334 334 333 334 332 332 333 335 337 335 335 326 327 328 323 320 320 320 319 317 317 315 314 314 314 313 313 312 309 308 310 315 313 313 316 320 319 316
316 321 327 332 331 334 334 335 337 338 336 335 334 334 333 333 331 331 334 338 336 334 326 327 327 322 320 320 320 318 317 317 316 315 314 314 313 313 313 312 312 314 313 312 312 312 323 328 324
321 324 330 332 334 335 337 339 338 336 335 332 332 332 331 332 332 332 338 337 336 333 326 326 325 321 320 320 319 318 317 317 316 315 315 315 315 314 314 315 319 321 323 320 320 317 324 331 331
321 326 330 337 336 336 337 339 337 336 335 332 331 332 331 331 331 332 335 337 336 333 327 326 324 321 320 320 319 318 318 317 316 315 316 316 315 315 315 321 324 325 324 325 326 325 323 330 331
325 329 332 333 332 333 335 335 338 338 336 334 332 332 331 332 331 332 335 336 336 336 336 332 324 322 321 321 319 319 319 318 318 318 317 316 316 316 323 329 327 326 326 329 325 331 330 327 320
328 329 336 333 332 331 332 331 332 333 334 333 332 332 332 331 331 332 333 335 336 336 336 337 324 322 321 321 321 320 319 319 319 319 320 318 316 318 328 331 332 328 326 326 328 331 327 328 328
329 334 334 333 331 331 331 331 332 331 332 332 332 332 331 332 333 332 332 334 335 335 336 337 334 322 322 322 322 321 321 321 320 320 320 320 318 319 328 327 324 322 323 323 323 322 322 327 327
327 332 333 333 333 332 332 331 331 331 331 332 331 332 332 332 332 330 330 331 333 334 336 337 340 332 323 322 322 323 323 323 322 321 320 321 320 325 326 326 325 325 324 320 317 318 319 319 323
326 330 332 333 333 332 331 332 331 331 331 331 330 331 331 330 331 331 331 331 331 334 335 336 337 342 336 333 327 323 323 323 323 322 321 321 327 333 334 333 332 330 325 320 317 316 317 317 317
326 331 332 332 332 332 332 332 331 331 332 331 330 330 331 331 331 331 330 329 330 332 335 336 337 339 343 339 337 335 326 324 324 324 330 334 335 333 333 333 331 328 327 319 319 318 318 319 327
328 331 332 332 332 331 332 332 331 332 333 331 330 330 331 330 330 330 329 328 330 331 333 336 338 338 341 340 337 343 342 339 337 338 337 336 334 333 334 334 332 331 331 330 329 329 330 329 329
331 330 331 331 331 331 332 330 332 331 331 330 329 330 330 330 329 329 328 329 329 332 333 335 338 340 340 339 337 339 342 339 338 339 339 337 333 334 334 333 332 331 330 330 329 329 328 328 328
328 329 329 330 330 330 330 330 331 331 330 330 329 330 330 330 328 327 327 328 329 333 333 333 338 339 340 336 338 339 339 338 338 336 335 334 333 334 334 333 332 331 331 330 329 328 329 328 329
327 327 327 327 327 329 330 330 330 330 330 329 329 329 329 329 327 327 327 328 329 333 334 334 337 340 339 342 338 339 339 337 337 334 332 333 334 334 334 334 331 330 330 330 330 328 328 328 329
327 329 329 329 327 328 328 330 330 329 329 329 329 328 328 327 327 327 327 328 330 332 334 335 337 340 338 340 339 341 339 336 336 334 332 334 335 334 333 333 334 332 329 328 329 329 328 328 328
327 329 330 329 329 328 328 330 330 329 329 329 328 328 328 327 327 327 328 328 330 331 334 336 338 341 341 344 342 341 338 337 333 332 333 335 334 333 333 334 332 330 329 328 328 328 327 328 327
328 330 330 329 329 329 330 331 330 328 328 329 328 328 327 327 327 327 328 328 328 330 332 337 338 341 345 346 344 341 337 335 332 332 333 334 335 334 332 332 331 329 328 327 328 328 328 328 327
327 328 328 328 329 329 330 331 330 327 327 327 328 328 327 327 327 327 327 328 328 333 335 339 339 341 344 346 344 340 336 334 332 333 333 333 334 333 333 331 330 328 327 328 326 327 327 328 327
325 326 327 328 328 328 328 329 330 328 327 328 328 328 328 327 327 327 328 331 332 333 337 339 339 340 344 344 341 336 334 333 332 332 333 334 334 333 333 332 329 328 328 327 328 326 325 326 327
322 324 326 327 328 329 329 329 330 330 329 327 327 327 327 327 327 327 328 335 334 336 336 338 339 342 343 341 337 333 332 332 333 333 334 334 333 333 334 331 330 328 327 326 326 325 326 323 324
323 324 325 326 327 328 328 329 329 328 327 326 325 325 325 326 326 327 328 336 335 336 337 338 339 343 340 337 333 332 332 333 334 331 333 332 331 332 331 329 328 326 326 328 327 325 324 325 324
323 323 324 325 327 328 327 330 328 328 328 327 327 326 326 326 327 328 328 336 336 337 338 338 340 339 336 332 333 334 333 331 331 333 331 332 332 331 330 329 327 328 327 323 325 325 326 325 325
322 323 325 325 325 325 325 327 326 326 327 327 328 326 326 326 327 327 332 336 336 337 338 339 339 336 335 333 333 332 330 330 332 330 332 331 332 330 328 328 329 328 326 325 323 323 324 324 325
321 322 324 325 325 327 325 326 327 327 327 327 328 327 327 328 328 331 335 335 336 336 337 338 337 336 335 333 334 331 333 332 331 332 332 330 330 327 327 329 329 328 325 325 327 326 326 324 325
321 323 325 326 327 328 325 326 327 327 327 328 328 328 327 330 333 334 334 335 335 336 336 336 336 336 334 333 333 333 334 333 333 333 331 331 330 327 326 329 327 328 327 327 327 328 328 326 325
321 323 325 328 328 326 325 326 327 327 327 326 326 326 332 334 334 334 334 334 335 335 335 334 335 334 333 333 333 333 333 333 331 331 331 329 329 328 330 329 328 326 328 328 329 330 329 328 327
321 324 323 326 327 328 327 327 327 328 329 327 329 327 332 334 334 334 334 334 334 334 334 334 334 333 333 332 333 332 333 332 331 329 327 330 329 328 329 330 328 329 330 328 330 328 328 326 325
321 322 323 327 327 327 327 328 326 329 328 328 330 329 331 334 334 334 334 334 334 334 333 334 334 333 332 332 332 332 333 332 332 332 331 329 330 329 329 329 328 329 329 328 327 326 326 326 324
320 322 323 325 325 327 328 326 327 329 329 329 329 330 334 334 334 334 333 333 334 333 334 334 333 331 331 332 331 332 331 332 331 331 330 329 329 328 328 329 329 329 329 329 328 326 327 328 326
320 322 324 326 327 325 326 327 329 327 329 331 332 333 334 334 333 333 333 333 333 334 334 334 331 330 330 331 331 330 332 332 332 331 329 330 328 327 328 328 328 328 330 330 326 328 327 328 326